Time,TemperatureF,DewpointF,PressureIn,WindDirection,WindDirectionDegrees,WindSpeedMPH,WindSpeedGustMPH,Humidity,HourlyPrecipIn,Conditions,Clouds,dailyrainin,SoftwareType,DateUTC
2014-08-22 00:07:00,68.8,66.0,30.01,South,178,10.0,10.0,91,0.00,,,0.00,weatherlink.com 1.10,2014-08-22 04:07:00,
2014-08-22 00:23:00,68.4,66.0,30.01,SSE,162,10.0,11.0,91,0.00,,,0.00,weatherlink.com 1.10,2014-08-22 04:23:00,
2014-08-22 00:38:00,68.6,67.0,30.01,SSE,153,3.0,12.0,93,0.00,,,0.00,weatherlink.com 1.10,2014-08-22 04:38:00,
2014-08-22 00:53:00,68.4,65.0,30.00,SSE,160,7.0,9.0,90,0.00,,,0.00,weatherlink.com 1.10,2014-08-22 04:53:00,
2014-08-22 01:08:00,68.1,65.0,29.99,South,188,7.0,9.0,91,0.00,,,0.00,weatherlink.com 1.10,2014-08-22 05:08:00,
2014-08-22 01:23:00,68.1,66.0,29.99,SW,231,3.0,10.0,92,0.00,,,0.00,weatherlink.com 1.10,2014-08-22 05:23:00,
2014-08-22 01:38:00,68.1,66.0,29.98,South,178,8.0,10.0,92,0.00,,,0.00,weatherlink.com 1.10,2014-08-22 05:38:00,
2014-08-22 01:53:00,67.5,65.0,29.98,SW,214,3.0,6.0,91,0.00,,,0.00,weatherlink.com 1.10,2014-08-22 05:53:00,
2014-08-22 02:08:00,67.4,65.0,29.98,WNW,288,1.0,7.0,91,0.00,,,0.00,weatherlink.com 1.10,2014-08-22 06:08:00,
2014-08-22 02:23:00,67.5,65.0,29.99,West,277,3.0,6.0,91,0.00,,,0.00,weatherlink.com 1.10,2014-08-22 06:23:00,
2014-08-22 02:38:00,67.3,65.0,29.99,West,260,3.0,6.0,91,0.00,,,0.00,weatherlink.com 1.10,2014-08-22 06:38:00,
2014-08-22 02:53:00,67.2,64.0,29.99,SSW,212,2.0,4.0,90,0.00,,,0.00,weatherlink.com 1.10,2014-08-22 06:53:00,
2014-08-22 03:08:00,67.2,64.0,29.99,SSW,210,2.0,3.0,90,0.00,,,0.00,weatherlink.com 1.10,2014-08-22 07:08:00,
2014-08-22 03:23:00,67.3,64.0,29.99,West,264,2.0,2.0,90,0.00,,,0.00,weatherlink.com 1.10,2014-08-22 07:23:00,
2014-08-22 03:38:00,67.2,64.0,29.99,SW,221,2.0,4.0,90,0.00,,,0.00,weatherlink.com 1.10,2014-08-22 07:38:00,
2014-08-22 03:53:00,67.2,64.0,29.99,SSW,208,2.0,3.0,90,0.00,,,0.00,weatherlink.com 1.10,2014-08-22 07:53:00,
2014-08-22 04:08:00,67.5,64.0,30.00,WSW,240,0.0,7.0,89,0.00,,,0.00,weatherlink.com 1.10,2014-08-22 08:08:00,
2014-08-22 04:23:00,67.7,65.0,30.00,SSE,163,5.0,6.0,91,0.00,,,0.00,weatherlink.com 1.10,2014-08-22 08:23:00,
2014-08-22 04:38:00,67.7,65.0,29.99,South,170,7.0,9.0,91,0.00,,,0.00,weatherlink.com 1.10,2014-08-22 08:38:00,
2014-08-22 04:53:00,67.7,65.0,29.99,SSE,163,8.0,11.0,91,0.00,,,0.00,weatherlink.com 1.10,2014-08-22 08:53:00,
2014-08-22 05:08:00,67.5,65.0,29.99,SE,146,5.0,8.0,91,0.00,,,0.00,weatherlink.com 1.10,2014-08-22 09:08:00,
2014-08-22 05:23:00,67.3,65.0,30.00,South,172,4.0,8.0,91,0.00,,,0.00,weatherlink.com 1.10,2014-08-22 09:23:00,
2014-08-22 05:38:00,66.8,65.0,30.00,SE,131,1.0,9.0,93,0.00,,,0.00,weatherlink.com 1.10,2014-08-22 09:38:00,
2014-08-22 05:53:00,66.2,64.0,30.01,SSE,159,11.0,14.0,93,0.01,,,0.01,weatherlink.com 1.10,2014-08-22 09:53:00,
2014-08-22 06:08:00,65.8,64.0,30.01,SSE,148,3.0,11.0,94,0.01,,,0.01,weatherlink.com 1.10,2014-08-22 10:08:00,
2014-08-22 06:23:00,65.7,64.0,30.01,SSW,203,5.0,10.0,95,0.01,,,0.01,weatherlink.com 1.10,2014-08-22 10:23:00,
2014-08-22 06:38:00,65.6,64.0,30.01,SSE,155,5.0,8.0,95,0.01,,,0.01,weatherlink.com 1.10,2014-08-22 10:38:00,
2014-08-22 06:53:00,65.7,65.0,30.01,South,190,4.0,7.0,96,0.00,,,0.01,weatherlink.com 1.10,2014-08-22 10:53:00,
2014-08-22 07:08:00,65.7,65.0,30.01,SSE,166,7.0,9.0,96,0.00,,,0.01,weatherlink.com 1.10,2014-08-22 11:08:00,
2014-08-22 07:23:00,65.6,65.0,30.01,SSE,165,10.0,11.0,96,0.00,,,0.01,weatherlink.com 1.10,2014-08-22 11:23:00,
2014-08-22 07:38:00,65.6,64.0,30.01,South,187,10.0,14.0,95,0.00,,,0.01,weatherlink.com 1.10,2014-08-22 11:38:00,
2014-08-22 07:53:00,66.0,65.0,30.01,South,181,5.0,9.0,95,0.00,,,0.01,weatherlink.com 1.10,2014-08-22 11:53:00,
2014-08-22 08:08:00,65.9,65.0,30.01,SSW,194,3.0,6.0,95,0.00,,,0.01,weatherlink.com 1.10,2014-08-22 12:08:00,
2014-08-22 08:23:00,66.3,65.0,30.01,NW,311,2.0,10.0,94,0.00,,,0.01,weatherlink.com 1.10,2014-08-22 12:23:00,
2014-08-22 08:38:00,66.4,64.0,30.01,SSW,203,4.0,5.0,93,0.00,,,0.01,weatherlink.com 1.10,2014-08-22 12:38:00,
2014-08-22 08:53:00,66.3,65.0,30.02,WSW,241,0.0,3.0,94,0.00,,,0.01,weatherlink.com 1.10,2014-08-22 12:53:00,
2014-08-22 09:08:00,66.6,65.0,30.02,West,259,2.0,2.0,94,0.00,,,0.01,weatherlink.com 1.10,2014-08-22 13:08:00,
2014-08-22 09:23:00,66.8,65.0,30.02,SSW,210,2.0,4.0,93,0.00,,,0.01,weatherlink.com 1.10,2014-08-22 13:23:00,
2014-08-22 09:38:00,66.9,65.0,30.03,SSE,162,2.0,5.0,93,0.00,,,0.01,weatherlink.com 1.10,2014-08-22 13:38:00,
2014-08-22 09:53:00,67.2,66.0,30.03,SSW,198,3.0,8.0,94,0.00,,,0.01,weatherlink.com 1.10,2014-08-22 13:53:00,
2014-08-22 10:08:00,67.4,65.0,30.04,SSW,200,6.0,7.0,92,0.00,,,0.01,weatherlink.com 1.10,2014-08-22 14:08:00,
2014-08-22 10:23:00,67.5,64.0,30.04,SSE,160,7.0,9.0,87,0.00,,,0.01,weatherlink.com 1.10,2014-08-22 14:23:00,
2014-08-22 10:38:00,67.4,64.0,30.04,SSE,148,5.0,8.0,87,0.00,,,0.01,weatherlink.com 1.10,2014-08-22 14:38:00,
2014-08-22 10:53:00,67.4,63.0,30.04,SE,146,4.0,8.0,86,0.00,,,0.01,weatherlink.com 1.10,2014-08-22 14:53:00,
2014-08-22 11:08:00,67.6,63.0,30.05,SSE,155,5.0,8.0,85,0.00,,,0.01,weatherlink.com 1.10,2014-08-22 15:08:00,
2014-08-22 11:23:00,67.8,63.0,30.04,SSE,165,5.0,8.0,84,0.00,,,0.01,weatherlink.com 1.10,2014-08-22 15:23:00,
2014-08-22 11:38:00,68.0,62.0,30.04,SSW,200,3.0,8.0,82,0.00,,,0.01,weatherlink.com 1.10,2014-08-22 15:38:00,
2014-08-22 11:53:00,68.2,63.0,30.04,South,176,7.0,7.0,82,0.00,,,0.01,weatherlink.com 1.10,2014-08-22 15:53:00,
2014-08-22 12:08:00,68.3,63.0,30.04,WNW,293,0.0,4.0,83,0.00,,,0.01,weatherlink.com 1.10,2014-08-22 16:08:00,
2014-08-22 12:23:00,68.3,63.0,30.04,West,273,0.0,3.0,84,0.00,,,0.01,weatherlink.com 1.10,2014-08-22 16:23:00,
2014-08-22 12:39:00,68.6,63.0,30.04,WSW,255,1.0,4.0,83,0.00,,,0.01,weatherlink.com 1.10,2014-08-22 16:39:00,
2014-08-22 12:54:00,68.8,64.0,30.04,WSW,246,0.0,3.0,83,0.00,,,0.01,weatherlink.com 1.10,2014-08-22 16:54:00,
2014-08-22 13:09:00,69.0,63.0,30.04,West,262,2.0,3.0,82,0.00,,,0.01,weatherlink.com 1.10,2014-08-22 17:09:00,
2014-08-22 13:24:00,69.1,63.0,30.04,SW,221,2.0,4.0,81,0.00,,,0.01,weatherlink.com 1.10,2014-08-22 17:24:00,
2014-08-22 13:39:00,68.9,63.0,30.04,West,277,2.0,4.0,82,0.00,,,0.01,weatherlink.com 1.10,2014-08-22 17:39:00,
2014-08-22 13:54:00,68.3,63.0,30.03,West,269,2.0,5.0,84,0.00,,,0.01,weatherlink.com 1.10,2014-08-22 17:54:00,